Location: Atbuku
(36.4936°N, 30.4362°E)
Time: 19:53:56
(UTC+00:00)

USA 59 Rocket - Pass Details

Date: 11 December 2025
Orbit: 369 x 1675 km, 63.3° (Epoch: 12 January)

Event Time Altitude Azimuth Distance (km) Brightness Sun altitude
Rises 17:21:02 0° 204° (SSW) 3,077 4.0 -30.9°
Reaches altitude 10° 17:23:42 10° 201° (SSW) 1,962 2.9 -31.5°
Enters shadow 17:24:02 12° 200° (SSW) 1,828 2.7 -31.5°
